STARLINK-4747 (53832 NORAD) Tracking and Keplerian Element Data

This shows tracking and keplerian element data for the satellite.

Feedback or suggestion? Click here.




ElementValue
Catalog53832
NameSTARLINK-4747
Epoch Orbit1047
Epoch Day325.33334491
Epoch Year2022
RAAN310.5226
Inclination53.2174
Eccentricity0.0001717
Argument of Perigee47.3279
Mean Anonmoly63.2924
Mean Motion15.16952571
Decay Rate-0.01161684
L11 53832U 22114Q 22325.33334491 -.01161684 00000+0 -63169-1 0 9999
L22 53832 53.2174 310.5226 0001717 47.3279 63.2924 15.16952571 10472



Live tracking and technical data element details for STARLINK-4747 (NORAD 53832). STARLINK-4747 can be tracked NOW for your location showing map with azimuth and elevation plus other details from your city location.







IsCatalogInMostPopularTable: catalog: 53832, numindb: -1

Insert: records affected: 1


GetName: 53832 STARLINK-4747

Hit Count: inserted at: Mon, 28 Nov 2022 05:55:44 GMT